Temperature
17 17 17 17 17 17 17 17 17 17 16 16 16 17 16 16 16 16 16 16 17 16 17 16 16 17 17 17 17 16 16 15 15 15 15 15 15 15 15 15 15 16 15
17 17 17 17 17 17 18 18 17 17 17 16 16 16 16 16 16 16 17 17 17 16 16 17 17 17 17 17 17 17 16 16 15 15 15 14 14 15 15 15 15 15 15
17 17 17 18 17 17 17 17 17 17 17 17 17 16 16 16 16 17 17 17 17 17 17 17 17 17 18 17 17 17 16 16 16 15 15 14 14 14 14 14 14 15 15
17 17 17 17 18 17 17 17 17 17 18 17 17 16 16 16 17 17 17 16 17 16 16 16 17 17 18 17 17 17 17 16 16 15 15 15 14 14 14 14 13 14 15
17 17 17 18 17 17 17 17 17 17 18 17 17 16 16 16 17 17 16 16 17 16 16 16 15 16 17 16 16 16 16 16 16 16 15 15 14 14 13 13 12 13 14
17 17 17 17 17 18 17 17 17 17 17 17 17 17 17 17 17 16 16 16 16 16 16 15 15 16 16 16 16 16 16 16 16 16 15 15 14 14 13 13 12 13 14
17 17 17 17 17 18 17 17 17 17 17 17 17 18 18 18 17 16 17 16 16 16 16 16 15 16 15 16 16 16 16 16 16 16 16 15 15 14 13 13 12 13 14
18 18 18 17 17 18 17 17 17 17 16 16 17 18 20 19 18 17 17 16 17 16 16 17 17 17 16 15 16 16 16 16 16 16 16 15 14 14 14 13 12 14 15
19 19 19 18 18 17 17 17 17 17 17 17 16 17 19 20 19 18 17 17 17 17 17 17 16 16 16 15 15 15 16 16 16 17 16 15 14 14 14 13 13 15 16
18 18 18 18 18 17 17 18 18 17 17 17 16 16 16 17 18 19 19 18 17 17 17 16 16 16 15 15 15 15 15 16 16 17 16 15 14 14 13 14 14 15 16
18 17 17 17 17 17 17 17 17 17 17 17 17 16 16 15 16 17 18 19 18 18 17 17 16 15 15 15 14 14 15 15 16 16 15 15 15 13 13 15 15 16 16
17 16 16 17 17 17 17 17 17 17 17 16 16 16 16 17 17 17 17 18 18 18 17 16 15 15 15 15 14 15 15 15 16 16 15 15 14 14 14 15 16 17 17
15 16 16 16 17 17 17 16 16 16 16 16 16 16 16 17 17 17 17 17 17 18 17 17 15 15 15 15 15 15 15 15 15 15 15 15 15 15 16 17 17 17 17
16 15 15 16 16 16 16 16 16 16 16 16 16 16 16 17 17 17 16 17 16 17 17 16 16 16 15 15 15 15 15 15 14 15 15 15 15 15 17 17 17 17 17
15 14 16 16 16 16 16 16 16 16 16 16 16 15 15 16 17 16 16 15 15 15 15 16 16 16 15 15 14 14 14 14 14 15 15 16 16 16 17 18 17 17 17
14 15 15 15 15 15 15 15 15 15 15 15 15 15 15 15 15 15 15 15 15 15 15 16 16 15 16 14 14 14 14 15 15 16 16 16 17 17 18 18 17 17 17
14 14 15 15 14 15 16 15 14 14 14 14 14 14 15 15 15 15 15 15 15 15 15 15 15 15 15 15 14 14 14 15 15 16 16 17 17 18 17 17 17 17 16
14 14 14 14 15 15 16 16 14 13 13 13 13 14 14 14 15 15 15 15 15 15 15 15 15 15 15 15 14 14 14 15 15 16 17 17 18 18 17 17 17 17 16
14 14 14 14 15 15 16 16 15 13 12 12 12 13 13 14 14 15 15 15 15 15 15 15 15 15 15 15 15 14 15 15 15 16 17 18 17 17 17 17 16 16 16
14 14 13 13 13 13 13 13 12 12 12 12 12 13 13 13 14 14 15 15 15 15 15 15 15 15 15 15 15 15 15 15 16 16 16 17 16 16 16 16 16 17 17
12 12 11 11 11 11 11 11 11 11 11 12 12 12 13 13 13 14 14 14 14 14 15 15 15 15 14 14 14 15 15 15 15 16 16 15 15 16 16 16 16 17 17
10 10 10 11 11 11 12 12 11 11 11 11 11 11 12 12 12 12 13 13 14 14 14 14 14 14 14 13 14 14 14 14 14 15 16 16 16 15 16 16 16 17 17
10 11 11 10 11 12 12 11 11 10 10 10 10 11 11 11 11 11 12 12 12 13 13 13 13 13 13 13 13 13 13 13 14 14 15 15 15 15 15 16 16 16 16
10 10 10 11 11 11 11 11 11 10 10 10 10 10 10 10 11 11 11 11 11 11 12 12 12 12 12 12 13 12 12 13 13 14 15 15 15 15 14 15 16 16 16
10 10 10 10 10 11 11 11 11 11 10 10 10 10 10 11 11 11 11 11 10 10 11 11 11 11 11 11 12 12 12 12 12 12 13 14 14 14 14 14 14 16 16
10 10 10 10 10 10 11 11 11 11 11 11 10 10 10 11 11 11 11 11 10 10 10 10 10 10 11 11 11 11 11 11 11 12 12 13 13 13 13 13 13 14 14
Wind_Speed
7 7 7 7 7 7 6 6 4 5 5 6 8 7 8 7 8 9 9 9 11 11 11 12 14 17 18 20 22 25 27 27 26 25 22 20 20 20 18 16 15 14 13
8 7 6 8 7 7 9 5 5 6 5 6 7 6 8 8 7 7 9 8 10 9 9 11 13 15 18 19 19 23 27 30 30 28 25 23 22 21 20 18 16 15 14
10 9 7 7 6 7 9 8 8 7 7 7 6 6 6 7 8 8 9 9 8 11 10 11 12 15 18 19 19 19 23 29 30 29 28 25 24 23 20 19 18 16 15
13 10 8 9 9 7 7 6 5 8 7 6 5 5 6 5 7 8 8 8 8 8 10 12 11 15 17 18 18 18 19 24 29 30 31 28 26 24 21 19 17 16 15
15 12 9 7 8 8 6 5 4 7 6 5 5 4 5 6 7 8 7 8 9 10 12 9 9 16 14 13 15 15 16 18 24 31 33 33 31 27 23 19 16 16 16
15 13 9 10 10 9 6 6 5 6 6 5 6 5 5 6 6 7 6 7 7 9 9 10 10 11 9 10 13 14 15 15 20 29 34 33 32 29 25 20 17 19 19
18 11 9 10 10 10 8 7 6 6 6 5 6 6 6 6 5 5 4 5 5 7 7 7 8 9 8 7 11 12 15 15 16 25 31 34 32 29 28 22 19 22 22
16 13 11 10 11 9 10 9 7 6 5 7 7 7 6 4 7 4 4 4 4 5 5 5 6 7 10 10 9 10 12 11 12 19 25 30 30 34 33 29 29 28 25
14 12 12 11 11 10 9 9 9 10 7 7 6 7 4 3 4 4 5 4 4 6 6 6 5 7 9 11 9 5 5 9 15 16 24 30 33 36 35 35 33 27 23
9 11 11 12 12 9 10 10 11 8 8 7 6 8 8 6 7 4 5 6 7 7 7 7 6 7 9 12 10 5 4 8 6 13 26 32 39 38 36 33 28 25 23
7 9 9 9 9 8 9 10 9 8 7 7 7 8 6 6 9 8 10 6 6 4 4 5 5 6 8 9 8 1 3 1 8 17 30 38 38 36 29 26 25 25 25
5 8 8 7 7 7 8 10 8 8 8 8 8 8 7 8 8 9 10 10 10 7 3 3 3 5 7 7 6 2 0 11 16 19 29 32 32 28 26 25 26 26 25
1 4 7 6 5 8 9 9 9 9 9 9 8 9 9 10 11 10 11 11 10 10 4 2 1 4 6 7 5 2 7 19 19 17 20 21 21 23 24 24 25 25 23
1 4 3 5 5 7 7 6 7 8 7 8 9 9 10 11 10 10 11 10 9 10 3 3 2 2 4 7 9 9 13 19 17 18 20 20 20 21 22 21 20 20 20
2 2 2 5 6 4 3 4 5 6 7 8 10 10 10 11 10 9 9 7 7 7 6 5 1 1 1 6 8 11 12 14 15 18 19 20 20 21 21 21 21 21 19
1 1 1 4 4 3 3 4 5 5 6 8 8 9 10 10 9 10 9 7 7 7 6 4 2 2 3 5 11 10 11 11 12 15 18 20 21 22 22 22 23 22 22
3 3 3 4 4 3 4 5 4 5 6 8 9 10 10 11 10 9 9 8 9 8 9 7 6 4 6 7 10 9 10 9 11 17 19 21 21 22 23 23 23 22 21
4 3 1 3 4 3 3 3 4 5 6 8 8 8 9 9 9 9 8 9 9 9 8 8 7 5 6 8 10 10 10 12 12 18 21 20 22 24 24 24 23 22 22
4 3 2 2 3 4 3 3 4 5 5 6 7 8 7 8 8 7 8 7 7 7 6 7 7 6 4 6 8 9 9 7 7 15 16 16 20 23 24 25 23 22 23
4 3 3 3 4 4 4 3 2 4 4 3 4 5 5 6 6 5 5 6 6 7 6 7 7 6 4 4 6 8 7 7 7 11 12 14 18 21 22 22 21 21 22
5 5 5 6 5 5 6 7 4 2 2 2 2 4 5 7 8 8 5 3 4 5 6 7 6 6 5 3 2 4 5 5 5 5 8 11 13 13 15 15 15 18 20
6 6 8 8 9 8 8 8 7 3 3 4 3 3 5 6 6 8 9 9 9 6 3 3 3 2 2 1 2 4 6 3 5 6 4 7 10 9 9 7 2 4 10
4 5 8 7 7 8 8 8 8 7 7 7 6 4 4 5 4 1 2 4 6 8 7 5 3 3 1 2 1 3 6 5 7 6 5 7 10 8 6 7 3 4 3
3 4 7 8 6 6 5 5 4 6 8 8 9 8 8 9 10 10 6 5 7 8 8 7 6 5 4 3 1 1 2 8 7 4 4 4 6 7 6 6 5 8 7
5 4 5 7 8 6 4 8 8 7 8 10 10 10 10 9 10 14 8 7 7 6 6 6 5 4 3 1 2 2 2 3 5 3 1 2 1 2 4 3 4 7 7
4 5 3 4 7 7 3 5 10 6 6 7 8 8 9 9 9 12 10 9 7 6 5 3 3 4 4 3 3 1 2 3 3 2 2 2 4 4 3 3 1 2 3
Wind_Direction
229 227 225 235 248 272 252 231 237 243 252 258 272 276 272 256 261 268 272 251 244 254 263 266 267 269 266 257 242 226 215 210 214 198 193 200 199 191 189 186 181 175 173
246 247 233 243 238 260 273 280 273 267 269 273 255 247 259 275 266 272 276 257 206 228 250 268 279 281 277 269 253 235 220 210 208 200 191 198 199 192 190 186 183 180 177
247 255 255 263 262 257 267 276 266 268 267 258 275 276 269 268 275 280 283 283 246 219 223 249 271 286 283 273 261 243 226 216 209 200 190 192 197 188 188 183 180 181 179
246 251 255 248 250 249 252 254 264 263 264 288 281 272 269 271 265 259 266 270 268 275 255 239 249 276 283 273 261 251 234 222 211 199 189 187 193 183 182 180 177 184 182
256 257 270 273 278 260 254 257 254 265 283 283 270 245 255 263 256 260 274 266 264 280 295 284 264 270 275 279 269 264 253 233 214 200 192 190 187 176 173 169 179 189 187
257 260 267 269 262 258 251 258 251 253 270 290 294 278 259 259 265 267 262 255 266 289 304 320 308 296 277 280 277 269 264 247 220 203 198 191 180 174 161 157 185 196 192
252 246 252 259 257 255 253 255 253 258 272 283 274 264 252 226 233 261 252 257 281 302 311 321 323 327 309 276 272 268 265 255 227 210 205 192 176 164 145 158 187 200 198
238 232 236 251 257 259 248 252 253 253 259 265 277 286 266 233 183 215 244 250 273 288 295 309 325 326 318 306 297 288 273 257 244 227 211 181 168 147 150 168 194 199 199
211 218 222 242 257 259 259 254 252 253 252 255 269 281 282 273 328 179 197 240 261 279 291 285 302 317 323 311 298 279 264 282 274 236 192 170 151 148 160 186 199 192 194
228 225 226 233 243 255 255 245 244 250 251 253 252 259 268 286 286 281 212 197 222 255 263 279 288 305 329 323 322 329 312 299 265 179 166 153 148 159 181 194 190 186 190
268 251 244 238 234 249 259 254 249 248 247 255 255 253 250 252 250 271 282 272 279 293 293 277 294 310 335 334 304 21 344 353 147 153 149 150 159 173 184 184 182 188 193
289 288 263 244 239 240 248 255 250 251 251 249 258 264 253 254 257 255 269 282 291 296 328 291 290 324 327 336 319 12 246 138 118 127 148 160 167 170 173 177 185 191 197
301 321 293 274 248 247 247 250 254 251 251 252 253 261 264 263 268 277 281 283 289 287 284 248 310 336 327 353 354 318 151 136 133 135 143 152 157 165 172 181 191 196 200
60 243 250 305 268 249 248 245 251 253 255 255 256 263 274 271 266 265 269 277 282 282 299 290 343 4 21 36 47 63 116 129 139 135 141 151 165 177 180 189 196 201 201
147 213 50 279 269 265 292 289 263 256 258 264 266 264 264 269 268 266 271 282 269 275 281 273 293 60 148 97 88 104 116 137 147 148 158 171 182 184 187 193 201 203 204
77 215 241 293 291 299 294 277 261 262 271 275 279 277 272 275 274 257 256 253 251 255 262 281 267 217 210 128 130 137 138 162 172 179 192 196 196 195 198 201 206 208 209
65 47 16 313 299 305 300 288 291 292 285 286 286 281 275 268 263 259 250 245 245 241 248 256 253 196 191 175 154 166 166 209 200 201 205 206 204 204 207 210 213 214 216
98 103 250 284 295 303 315 308 297 307 307 303 300 294 286 282 270 259 256 250 246 239 238 245 242 205 196 186 177 188 199 215 217 194 203 203 206 206 208 214 217 218 221
93 91 72 332 331 335 328 315 302 298 310 315 313 302 293 282 279 272 270 270 265 253 241 243 237 197 186 196 203 203 209 227 219 175 190 194 207 209 210 215 218 221 225
65 61 45 26 13 358 3 356 308 269 285 303 320 330 340 332 324 297 277 276 265 248 231 230 235 210 180 192 208 207 193 199 214 172 184 187 197 206 213 218 223 228 234
84 68 51 43 33 23 18 2 6 30 358 345 42 12 15 27 29 20 10 337 304 257 231 243 241 217 189 172 212 224 215 186 216 212 182 171 182 190 197 212 224 230 236
101 79 56 46 45 43 7 359 341 64 48 34 61 76 50 28 26 38 46 47 38 16 335 303 270 230 196 83 2 286 257 219 213 214 217 198 164 171 167 145 129 206 224
90 69 60 50 55 52 12 11 355 53 59 50 35 36 76 44 2 38 123 125 75 51 26 21 39 58 81 70 16 322 302 242 230 220 212 209 159 161 142 107 23 343 304
51 56 68 58 71 68 12 339 321 74 67 63 61 57 54 54 16 349 15 34 43 47 30 39 59 60 46 42 67 138 355 338 317 270 287 236 159 170 170 129 78 40 22
44 40 60 69 80 82 11 334 318 78 76 74 64 47 39 38 4 342 16 47 49 60 94 90 102 126 123 67 5 37 10 351 305 260 271 236 151 230 193 198 96 69 61
28 3 36 75 79 77 46 349 332 58 73 84 80 68 44 11 3 2 18 27 41 28 20 74 139 173 166 179 228 238 273 274 288 330 5 300 190 190 203 185 172 164 126
Height
1564 1564 1562 1563 1563 1564 1565 1565 1564 1562 1562 1560 1560 1560 1560 1558 1556 1556 1554 1552 1551 1550 1549 1548 1548 1546 1546 1545 1544 1544 1545 1546 1549 1551 1553 1555 1555 1557 1558 1558 1558 1559 1559
1563 1563 1562 1563 1563 1561 1562 1563 1562 1561 1560 1559 1558 1557 1556 1555 1554 1553 1551 1550 1547 1546 1545 1545 1544 1542 1540 1539 1538 1538 1538 1539 1542 1545 1546 1549 1551 1553 1555 1556 1556 1557 1558
1562 1562 1562 1561 1560 1559 1558 1560 1559 1559 1559 1558 1557 1555 1554 1552 1552 1551 1549 1547 1546 1544 1543 1542 1540 1538 1535 1533 1532 1532 1532 1533 1534 1536 1538 1542 1546 1549 1552 1554 1555 1556 1557
1559 1559 1560 1560 1559 1557 1556 1556 1557 1558 1558 1557 1554 1551 1550 1550 1549 1548 1548 1546 1545 1544 1541 1537 1534 1531 1529 1526 1525 1525 1526 1526 1527 1529 1532 1535 1540 1544 1549 1552 1553 1555 1558
1559 1558 1557 1558 1557 1556 1555 1553 1553 1554 1556 1555 1553 1550 1548 1548 1548 1547 1546 1544 1543 1541 1538 1534 1529 1526 1523 1521 1520 1520 1520 1521 1522 1523 1525 1528 1531 1535 1543 1548 1549 1553 1557
1556 1555 1554 1555 1555 1556 1553 1551 1551 1552 1552 1552 1552 1550 1548 1546 1547 1546 1544 1543 1541 1538 1535 1531 1526 1525 1521 1518 1515 1515 1515 1516 1517 1518 1519 1522 1524 1529 1535 1540 1544 1549 1555
1550 1549 1549 1553 1552 1553 1552 1550 1550 1549 1548 1549 1550 1549 1547 1545 1544 1544 1542 1541 1540 1537 1533 1529 1526 1522 1519 1516 1513 1511 1511 1512 1512 1512 1514 1516 1520 1525 1528 1533 1538 1545 1551
1539 1543 1542 1547 1549 1549 1547 1547 1546 1546 1544 1545 1547 1547 1545 1544 1541 1542 1541 1539 1537 1535 1532 1528 1524 1519 1516 1514 1511 1508 1507 1507 1507 1507 1509 1513 1518 1520 1524 1531 1536 1544 1550
1528 1534 1535 1540 1543 1543 1543 1542 1543 1543 1542 1542 1542 1545 1542 1539 1539 1538 1538 1537 1535 1534 1531 1527 1522 1518 1514 1511 1508 1506 1503 1503 1503 1503 1504 1508 1512 1516 1522 1528 1535 1542 1547
1524 1527 1530 1534 1537 1538 1538 1538 1539 1539 1539 1538 1539 1541 1540 1537 1537 1535 1534 1533 1531 1531 1528 1525 1522 1518 1513 1509 1504 1502 1501 1501 1501 1501 1503 1507 1511 1517 1524 1530 1535 1538 1542
1519 1521 1526 1531 1530 1531 1534 1534 1534 1534 1535 1534 1535 1536 1536 1534 1534 1534 1533 1532 1531 1529 1527 1523 1519 1516 1511 1507 1504 1501 1501 1501 1501 1503 1504 1508 1513 1518 1524 1529 1533 1538 1542
1512 1516 1522 1526 1525 1527 1531 1532 1531 1530 1531 1530 1531 1533 1532 1532 1531 1530 1530 1529 1529 1528 1525 1522 1518 1514 1510 1507 1504 1502 1502 1502 1503 1506 1509 1512 1516 1521 1525 1532 1535 1539 1542
1511 1513 1518 1521 1523 1526 1527 1528 1528 1526 1527 1527 1526 1529 1530 1528 1528 1527 1526 1525 1525 1524 1523 1521 1518 1514 1510 1507 1503 1502 1502 1503 1506 1510 1513 1517 1521 1525 1529 1532 1536 1539 1541
1508 1512 1514 1518 1521 1522 1522 1522 1522 1523 1522 1522 1524 1524 1525 1525 1525 1524 1524 1522 1521 1520 1520 1519 1518 1514 1511 1506 1504 1502 1501 1504 1506 1511 1516 1521 1524 1527 1529 1531 1534 1536 1538
1506 1508 1510 1518 1519 1518 1515 1516 1518 1519 1518 1519 1520 1519 1520 1521 1521 1520 1519 1518 1519 1519 1518 1517 1516 1514 1513 1510 1507 1505 1504 1508 1512 1516 1520 1523 1525 1526 1528 1530 1532 1534 1534
1506 1508 1511 1514 1515 1514 1512 1512 1514 1514 1515 1515 1516 1515 1516 1515 1516 1516 1514 1513 1514 1515 1515 1514 1513 1512 1512 1513 1512 1512 1511 1512 1514 1516 1519 1521 1523 1525 1526 1527 1529 1530 1531
1506 1508 1508 1509 1510 1509 1508 1509 1509 1509 1510 1511 1512 1513 1512 1511 1512 1511 1510 1508 1509 1509 1510 1510 1511 1510 1511 1513 1513 1514 1514 1514 1515 1516 1517 1519 1520 1522 1524 1525 1527 1528 1528
1503 1504 1506 1506 1506 1506 1504 1505 1505 1507 1507 1507 1508 1508 1507 1508 1508 1508 1507 1506 1505 1504 1505 1505 1506 1507 1509 1511 1513 1513 1514 1515 1516 1515 1515 1516 1517 1519 1520 1522 1523 1524 1524
1504 1504 1504 1504 1503 1502 1501 1500 1501 1503 1504 1504 1504 1503 1502 1503 1502 1503 1504 1503 1503 1503 1502 1501 1501 1502 1504 1508 1510 1512 1512 1513 1513 1512 1512 1512 1513 1515 1517 1519 1520 1521 1522
1504 1504 1504 1503 1501 1501 1499 1498 1498 1500 1502 1502 1502 1501 1499 1498 1497 1498 1499 1499 1499 1500 1499 1498 1498 1499 1501 1504 1506 1507 1508 1509 1511 1510 1509 1510 1512 1513 1514 1516 1518 1519 1521
1505 1505 1505 1504 1502 1502 1500 1500 1501 1501 1501 1501 1501 1500 1498 1496 1495 1496 1496 1497 1497 1496 1496 1495 1494 1495 1498 1502 1504 1505 1506 1507 1508 1509 1509 1509 1510 1511 1512 1514 1516 1517 1518
1509 1508 1507 1506 1504 1503 1502 1502 1502 1503 1502 1502 1500 1499 1498 1497 1497 1496 1496 1496 1495 1495 1495 1493 1493 1494 1497 1499 1502 1505 1505 1504 1506 1507 1506 1506 1508 1510 1511 1512 1513 1514 1516
1511 1510 1509 1509 1508 1506 1505 1505 1505 1505 1503 1501 1500 1501 1501 1499 1498 1498 1496 1495 1495 1494 1494 1494 1494 1494 1495 1496 1498 1499 1501 1502 1503 1504 1503 1503 1504 1506 1507 1506 1509 1511 1512
1513 1512 1512 1512 1512 1510 1509 1509 1508 1508 1506 1504 1503 1503 1504 1502 1500 1500 1499 1497 1497 1495 1495 1494 1494 1494 1494 1494 1494 1494 1495 1495 1496 1498 1499 1499 1500 1503 1504 1504 1506 1507 1509
1513 1513 1514 1515 1513 1512 1512 1512 1512 1511 1509 1508 1507 1505 1505 1504 1503 1502 1501 1499 1499 1499 1498 1497 1496 1495 1494 1493 1493 1494 1494 1496 1496 1496 1496 1498 1497 1499 1502 1503 1503 1503 1505
1512 1513 1515 1516 1514 1514 1514 1514 1514 1514 1514 1513 1512 1510 1508 1507 1505 1504 1501 1502 1503 1503 1502 1501 1500 1498 1495 1493 1492 1492 1492 1493 1495 1494 1494 1496 1495 1496 1499 1501 1500 1501 1502